This is the latest recevied weather packets stored in our database for station/object EA7BW-10. If no packets are shown the sender has not sent any weather packets the latest 10 day(s).
| Time | Temp. | Humidity | Pressure | Rain* | Wind** | Luminosity | Snow |
|---|---|---|---|---|---|---|---|
| 1777630988 | 31.11° C | 42% | 1013.4 hPa | - | - | - | - |
| 1777629788 | 30.56° C | 43% | 1013.6 hPa | - | - | - | - |
| 1777628587 | 31.11° C | 42% | 1013.7 hPa | - | - | - | - |
| 1777627387 | 30.56° C | 42% | 1013.9 hPa | - | - | - | - |
| 1777626187 | 30° C | 43% | 1013.9 hPa | - | - | - | - |
| 1777624987 | 28.89° C | 45% | 1013.8 hPa | - | - | - | - |
| 1777623787 | 27.22° C | 46% | 1013.8 hPa | - | - | - | - |
| 1777622587 | 24.44° C | 48% | 1013.7 hPa | - | - | - | - |
| 1777621387 | 21.11° C | 52% | 1013.7 hPa | - | - | - | - |
| 1777620187 | 20.56° C | 51% | 1013.7 hPa | - | - | - | - |
| 1777618986 | 17.22° C | 55% | 1013.9 hPa | - | - | - | - |
| 1777617786 | 16.11° C | 56% | 1013.8 hPa | - | - | - | - |
| 1777616586 | 15° C | 57% | 1013.5 hPa | - | - | - | - |
| 1777615386 | 13.33° C | 59% | 1013.5 hPa | - | - | - | - |
| 1777614186 | 12.78° C | 60% | 1013.3 hPa | - | - | - | - |
| 1777612985 | 12.22° C | 60% | 1013 hPa | - | - | - | - |
| 1777611785 | 12.22° C | 60% | 1012.9 hPa | - | - | - | - |
| 1777610585 | 12.22° C | 60% | 1013 hPa | - | - | - | - |
| 1777609385 | 12.78° C | 59% | 1013 hPa | - | - | - | - |
| 1777608185 | 12.78° C | 59% | 1013.1 hPa | - | - | - | - |
| 1777606985 | 12.78° C | 58% | 1013 hPa | - | - | - | - |
| 1777605785 | 13.33° C | 58% | 1013 hPa | - | - | - | - |
| 1777604585 | 13.33° C | 58% | 1013 hPa | - | - | - | - |
| 1777603385 | 13.33° C | 57% | 1012.7 hPa | - | - | - | - |
| 1777602185 | 13.89° C | 57% | 1012.6 hPa | - | - | - | - |
* Rain since midnight (hover to see other rain measurements)
** Current wind speed in m/s (hover to see current wind gust speed)